Tracking 19847 objects as of 18-Sep-2019
HD Live streaming from Space Station
objects crossing your sky now

SUPERBIRD C

Track SUPERBIRD C now!
SUPERBIRD C is classified as:


NORAD ID: 24880
Int'l Code: 1997-036A
Perigee: 36,115.5 km
Apogee: 36,152.4 km
Inclination: 8.0 °
Period: 1,453.5 minutes
Semi major axis: 42504 km
RCS: 12.5892 m2 (large)
Launch date: July 28, 1997
Source: Japan (JPN)
Launch site: AIR FORCE EASTERN TEST RANGE (AFETR)

14 Ku-band; Asia-Pacific region; voice and video communications.
aabbcc
Your satellite tracking list
Your tracking list is empty




NASA's NSSDC Master Catalog

Two Line Element Set (TLE):
1 24880U 97036A   19260.46167947  .00000047  00000-0  00000+0 0  9999
2 24880   7.9998  49.2967 0004342 296.8222  63.2553  0.99070360 80867
Source of the keplerian elements: AFSPC